#timestamp,LO_Frequency,Hit 
1504897215.6,286046990.2,N
1504897235.4,286046988.7,P
1504897255.3,286046990.8,N
1504897275.1,286046991.6,N
1504897276.0,286046991.6,N
1504897295.8,286046987.2,P
1504897315.7,286046993.4,N
1504897335.5,286046994.0,N
1504897355.3,286046993.7,N
1504897375.2,286046994.7,N
1504897395.9,286046993.6,N
1504897415.7,286046993.4,N
1504897435.6,286046992.9,P
1504897455.4,286046998.1,P
1504897475.2,286046996.9,N
1504897495.0,286046993.6,N
1504897496.0,286046993.6,N
1504897515.8,286046992.1,P
1504897535.6,286046997.3,N
1504897555.5,286046999.4,N
1504897575.3,286046999.1,N
1504897595.1,286046997.3,N
1504897615.8,286046998.4,N
1504897635.7,286046998.6,N
1504897655.5,286047001.0,N
1504897675.3,286047000.1,N
1504897695.2,286047000.1,N
1504897715.9,286046999.2,N
1504897735.7,286046995.4,N
1504897755.6,286046995.9,N
1504897775.4,286046996.7,N
1504897795.2,286046996.4,N
1504897815.1,286046992.0,P
1504897816.0,286046992.0,N
1504897835.8,286046997.5,N
1504897855.6,286046998.1,N
1504897875.5,286047004.1,N
1504897895.3,286047009.3,N
1504897915.1,286047011.2,N
1504897935.9,286047012.8,N
1504897955.7,286047014.2,N
1504897975.5,286047014.1,N
1504897995.4,286047018.7,N
1504898015.2,286047017.3,N
1504898035.0,286047017.4,N
1504898035.9,286047017.4,N
1504898055.8,286047017.5,N
1504898075.6,286047016.6,N
1504898095.4,286047016.4,N
1504898115.2,286047015.9,N
1504898135.1,286047019.7,N
1504898136.0,286047019.7,N
1504898155.8,286047020.9,N
1504898175.6,286047024.7,N
1504898195.5,286047026.2,N
1504898215.3,286047028.2,N
1504898235.1,286047029.2,N
1504898255.9,286047029.6,N
1504898275.7,286047029.1,N
1504898295.5,286047027.5,N
1504898315.4,286047027.5,N
1504898335.2,286047029.8,N
1504898355.0,286047029.3,N
1504898355.9,286047029.3,N
1504898375.8,286047030.0,P
1504898395.6,286047009.9,N
1504898415.4,286047009.3,N
1504898435.3,286047010.5,N
1504898455.1,286047007.7,N
1504898456.0,286047007.7,N
1504898475.8,286047009.8,N
1504898495.7,286047012.3,N
1504898515.5,286047012.3,N
1504898535.3,286047012.1,N
1504898555.1,286047009.6,N
1504898575.9,286047007.9,N
1504898595.7,286047006.2,N
1504898615.5,286047008.3,N
1504898635.4,286047008.6,N
1504898655.2,286047008.2,N
1504898675.0,286047009.7,N
1504898675.9,286047009.7,N
1504898695.8,286047009.9,N
1504898715.6,286047006.5,N
1504898735.4,286047005.0,N
1504898755.3,286047006.7,N
1504898775.1,286047008.7,N
1504898776.0,286047008.7,N
1504898795.8,286047008.4,N
1504898815.7,286047008.7,N
1504898835.5,286047009.8,N
1504898855.3,286047013.2,N
1504898875.2,286047014.0,P
1504898895.9,286046998.5,N
1504898915.7,286046996.9,N
1504898935.6,286046997.0,N
1504898955.4,286046998.8,N
1504898975.2,286047000.5,N
1504898995.0,286046998.2,N
1504898996.0,286046998.2,N
1504899015.8,286046997.6,N
1504899035.6,286046993.9,N
1504899055.4,286046995.9,N
1504899075.3,286046996.0,N
1504899095.1,286046988.7,N
1504899115.8,286046989.9,N
1504899135.7,286046989.2,N
1504899155.5,286046991.3,N
1504899175.3,286046987.6,N
1504899195.2,286046985.8,N
1504899215.9,286046982.6,N
1504899235.7,286046977.7,P
1504899255.6,286046985.1,N
1504899275.4,286046983.9,N
1504899295.2,286046984.9,N
1504899315.1,286046983.4,N
1504899316.0,286046983.4,P
1504899335.8,286046996.7,P
1504899355.6,286046994.8,N
1504899375.5,286046993.7,N
1504899395.3,286046992.2,N
1504899415.1,286046993.5,N
1504899435.9,286046992.2,N
1504899455.7,286046992.0,N
1504899475.5,286046996.4,N
1504899495.4,286046994.2,N
1504899515.2,286046997.6,N
1504899535.0,286046991.4,N
1504899535.9,286046991.4,N
1504899555.8,286046991.4,N
1504899575.6,286046990.5,N
1504899595.4,286046991.9,N
1504899615.2,286046992.5,N
1504899635.1,286046991.8,N
1504899636.0,286046991.8,N
1504899655.8,286046993.7,N
1504899675.6,286046996.3,N
1504899695.5,286046997.9,N
1504899715.3,286046992.6,N
1504899735.1,286046991.8,N
1504899755.9,286046994.4,N
1504899775.7,286046991.8,N
1504899795.5,286046998.7,N
1504899815.4,286046999.7,N
1504899835.2,286047003.5,N
1504899855.0,286047009.1,N
1504899855.9,286047009.1,N
1504899875.8,286047010.5,N
1504899895.6,286047010.2,N
1504899915.4,286047012.2,N
1504899935.2,286047009.6,N
1504899955.1,286047011.9,N
1504899956.0,286047011.9,N
1504899975.8,286047011.1,N
1504899995.6,286047013.5,N
1504900015.5,286047015.0,N
1504900035.3,286047010.9,N
1504900055.1,286047012.0,N
1504900075.9,286047011.4,N
1504900095.7,286047012.6,N
1504900115.5,286047015.7,N
1504900135.4,286047017.2,N
1504900155.2,286047014.7,N
1504900175.0,286047017.5,N
1504900175.9,286047017.5,N
1504900195.8,286047019.2,N
1504900215.6,286047019.0,N
1504900235.4,286047023.3,N
1504900255.3,286047020.2,N
1504900275.1,286047020.4,N
1504900276.0,286047020.4,N
1504900295.8,286047020.8,P
1504900315.7,286047010.0,N
1504900335.5,286047011.8,N
1504900355.3,286047011.6,N
1504900375.2,286047009.3,N
1504900395.9,286047013.8,P
1504900415.7,286046999.6,N
1504900435.6,286046998.4,N
1504900455.4,286046998.9,N
1504900475.2,286047000.8,N
1504900495.0,286046996.8,N
1504900496.0,286046996.8,N
1504900515.8,286046997.8,N
1504900535.6,286046995.5,N
1504900555.4,286046997.5,N
1504900575.3,286046995.7,N
1504900595.1,286046997.6,N
1504900615.8,286046997.7,N
1504900635.7,286046995.3,N
1504900655.5,286046996.6,N
1504900675.3,286046997.3,N
1504900695.2,286046995.8,N
1504900715.9,286046997.2,N
1504900735.7,286046996.5,N
1504900755.6,286046994.9,N
1504900775.4,286046998.4,N
1504900795.2,286047001.7,N
